Regional Weather Roundup
Issued by NWS

Home | Current Version | Previous Version | Graphics & Text | Print | Product List | Glossary On
Versions: 1 2 3 4 5 6 7 8 9 10 11 12 13 14 15 16 17 18 19 20 21 22 23 24 25 26 27 28 29 30 31 32 33 34 35 36 37 38 39 40 41 42 43 44 45 46 47 48 49 50
533
ASUS43 KDTX 222110
RWRMI
MICHIGAN HOURLY REGIONAL WEATHER ROUNDUP
NATIONAL WEATHER SERVICE DETROIT/PONTIAC MI
400 PM EST WED NOV 22 2017

NOTE: "FAIR" INDICATES FEW OR NO CLOUDS BELOW 12,000 FEET WITH NO
SIGNIFICANT WEATHER AND/OR OBSTRUCTION TO VISIBILITY.

MIZ047>049-052>055-059>063-066>070-074>076-081>083-222200-
SOUTHEAST LOWER MICHIGAN

CITY           SKY/WX    TMP DP  RH WIND       PRES   REMARKS
ADRIAN         MOSUNNY   34  17  50 NW8       30.26S WCI  27
ALMA           CLOUDY    32  18  55 W7        30.26R WCI  26
ANN ARBOR      PTCLDY    34  16  47 W7        30.24F WCI  28
BAD AXE        CLOUDY    30  18  60 W5        30.25R WCI  25
CARO           CLOUDY    32  19  58 W5        30.24S WCI  27
DETROIT CITY   CLOUDY    34  16  47 W9        30.27R WCI  27
DETROIT        CLOUDY    36  17  46 N6        30.26S WCI  31
FLINT          CLOUDY    31  17  56 W13       30.26S WCI  21
GROSSE ILE     CLOUDY    34  17  51 NW5       30.26S WCI  30
HILLSDALE      MOSUNNY   32  18  55 W7        30.23S WCI  26
HOWELL         CLOUDY    31  19  60 NW3       30.25S

CITY           SKY/WX    TMP DP  RH WIND       PRES   REMARKS
JACKSON        MOSUNNY   34  16  47 W3        30.24F
LAMBERTVILLE   PTCLDY    37  17  45 SW5       30.26S WCI  33
LANSING        CLOUDY    32  18  56 W6        30.26S WCI  26
LAPEER         CLOUDY    32  17  55 W6        30.25S WCI  26
MASON          CLOUDY    34  19  53 NW6       30.25S WCI  29
MONROE         CLOUDY    37  17  45 N7        30.26S WCI  31
MT. CLEMENS    CLOUDY    33  18  54 W7        30.24S WCI  27
PONTIAC        CLOUDY    32  16  51 NW8       30.23S WCI  25
PORT HOPE        N/A     32  18  56 VRB6      30.23R WCI  26
PORT HURON     CLOUDY    32  18  55 NW6       30.26S WCI  26
TRI CITIES     CLOUDY    32  18  56 W9        30.26R WCI  24
MIDLAND        CLOUDY    33  17  51 SW6       30.25R WCI  28
TROY           CLOUDY    35  16  46 NW6       30.27S WCI  30
SAGINAW HB     CLOUDY    32  19  59 W7        30.25R WCI  26
$$
MIZ043>046-050>051-056>058-064>065-071>073-077>080-222200-
SOUTHWEST LOWER MICHIGAN

CITY           SKY/WX    TMP DP  RH WIND       PRES   REMARKS
BATTLE CREEK   CLOUDY    33  20  58 NW8       30.25F WCI  26
BENTON HARBOR  CLOUDY    34  22  61 W9        30.27S WCI  27
BIG RAPIDS     CLOUDY    31  16  54 W5        30.22S WCI  26
COLDWATER      PTSUNNY   34  17  50 W7        30.25F WCI  28
FREMONT        CLOUDY    32  20  62 W5        30.25R WCI  27
HOLLAND        CLOUDY    34  21  59 W7        30.26S WCI  28
GRAND RAPIDS   CLOUDY    33  22  63 W7        30.25S WCI  27
IONIA          FAIR      32  17  55 W8        30.24S WCI  25
KALAMAZOO      CLOUDY    35  18  49 W7        30.25F WCI  29
LUDINGTON      CLOUDY    31  19  62 SW7       30.23F WCI  24
MARSHALL       CLOUDY    35  18  50 NW3       30.24F
MOUNT PLEASANT CLOUDY    33  17  51 W6        30.24R WCI  27
MUSKEGON       CLOUDY    34  19  54 W9        30.27R WCI  27
SOUTH HAVEN    PTSUNNY   35  21  57 W5        30.26S WCI  31
$$
MIZ016>042-222200-
NORTHERN LOWER MICHIGAN

CITY           SKY/WX    TMP DP  RH WIND       PRES   REMARKS
ALPENA         CLOUDY    33  18  53 NW5       30.21R WCI  29
BEAVER ISLAND  CLOUDY    32  22  68 CALM      30.18F
BELLAIRE       CLOUDY    31  21  65 CALM      30.21F
CADILLAC       CLOUDY    28  16  61 SW9       30.19S WCI  19
CHARLEVOIX     CLOUDY    32  21  65 SW7       30.22F WCI  26
FRANKFORT      CLOUDY    32  21  64 SW9       30.21F WCI  24
GAYLORD        CLOUDY    27  18  69 SW9       30.17F WCI  18
GRAYLING       CLOUDY    29  15  57 SW6       30.20S WCI  22
HARBOR SPRINGS CLOUDY    32  22  68 SW7       30.18F WCI  25
HOUGHTON LAKE  CLOUDY    29  16  58 W10       30.21S WCI  20
MANISTEE       CLOUDY    30  20  66 VRB7      30.23F WCI  23
OSCODA         CLOUDY    33  13  44 W6        30.22R WCI  27
PELLSTON       CLOUDY    31  22  69 SW3       30.19F
ROGERS CITY    CLOUDY    32  19  59 W5        30.20F WCI  27
TRAVERSE CITY  CLOUDY    32  17  54 SW6       30.20F WCI  26
$$
MIZ007>008-015-222200-
EASTERN UPPER MICHIGAN

CITY           SKY/WX    TMP DP  RH WIND       PRES   REMARKS
KINROSS        CLOUDY    29  22  75 W8        30.17R WCI  21
MACKINAC ISLAN CLOUDY    31  21  65 W7        30.17F WCI  24
NEWBERRY       CLOUDY    26  20  80 SW3       30.16S
S. S. MARIE    FLURRIES  30  24  78 W8        30.15F WCI  22
MUNISING         N/A     30  19  63 S5        30.15F WCI  25
$$
MIZ004>006-011>014-085-222200-
CENTRAL UPPER MICHIGAN

CITY           SKY/WX    TMP DP  RH WIND       PRES   REMARKS
MANISTIQUE     CLOUDY    29  12  49 SW6       30.18R WCI  23
ESCANABA       CLOUDY    30  19  63 S10       30.18S WCI  21
MENOMINEE      CLOUDY    28  15  58 SW7       30.21S WCI  21
SAWYER-GWINN   CLEAR     25  16  68 SW13      30.12F WCI  13
$$
MIZ001>003-009>011-084-222200-
WESTERN UPPER MICHIGAN

CITY           SKY/WX    TMP DP  RH WIND       PRES   REMARKS
IRON MOUNTAIN  CLOUDY    27  12  53 SW7       30.13F WCI  19
HOUGHTON       PTCLDY    26  11  52 SW8       30.08F WCI  18
COPPER HARBOR    N/A     27  14  58 W8        30.10F WCI  19
IRONWOOD       CLOUDY    24  12  60 S10       30.10F WCI  14
$$

ABBREVIATIONS USED IN REMARKS
   TC - TEMPERATURE IN CELSIUS
  WCI - WIND CHILL INDEX
   HX - HEAT INDEX
  VSB - VISIBILITY





USA.gov is the U.S. government's official web portal to all federal, state and local government web resources and services.